|
NORAD ID: 23778 Int'l Code: 1996-005D
Perigee: 36,465.2 km
Apogee: 36,610.6 km
Inclination: 12.8 °
Period: 1,474.3 minutes
Semi major axis: 42908 km
Launch date: January 25, 1996
Source: Commonwealth of Independent States (former USSR) (CIS)
Note: This is a ROCKET BODY
Two Line Element Set (TLE):
1 23778U 96005D 13144.56996605 -.00000134 00000-0 10000-3 0 8279
2 23778 012.8422 040.0411 0016938 054.6708 305.4102 00.97674737 61827
Source:
NASA's NSSDC Master Catalog entry for SL-12 R/B(2)
|